Location: Isle of Man Observatory
(54.1776°N, 4.6264°W)
Time: 20:57:30
(UTC+01:00)

X-37B - Visible Passes

Search period start: 03 December 2021 00:00
Search period end: 13 December 2021 00:00
Orbit: 330 x 341 km, 45.0° (Epoch: 20 November)

Date Brightness Start Highest point End Pass type
(mag) Time Alt. Az. Time Alt. Az. Time Alt. Az.
10 Dec 3.1 19:15:53 10° S 19:16:51 12° S 19:16:51 12° S visible
11 Dec 3.2 19:35:31 10° SSW 19:36:23 13° SSW 19:36:23 13° SSW visible
12 Dec 3.1 18:21:18 10° SSW 18:22:27 12° SSE 18:23:35 10° SE visible
12 Dec 3.6 19:55:40 10° SW 19:55:55 11° SSW 19:55:55 11° SSW visible
